Flag for U.S.A. Weather past 2 weeks in St. Croix Falls, Wisconsin, U.S.A.

Now
39 °F

Overcast.


Feels Like: 35 °F
Forecast: 22 / 38 °F
Wind: 6 mph from Northwest

Location: L O Simenstad Municipal Airport

Current Time: Jan 26, 2015 at 2:47:27 PM

Latest Report: Jan 26, 2015 at 2:15 PM


Visibility: 10 mi

Pressure: 29.74 "Hg

Humidity: 76%

Dew point: 32 °F

Location of St. Croix FallsLocation

Historic Weather in St. Croix Falls — Graph

°F

St. Croix Falls temperature yesterday

Maximum temperature yesterday: 32 °F (at 12:15 AM)
Minimum temperature yesterday: 18 °F (at 7:55 AM)
Average temperature yesterday: 23 °F

Past Weeks' High & Low Weather Summary

 TemperatureHumidityPressure
High40 °F (Jan 24, 1:55 PM)100% (Jan 15, 5:55 AM)30.82 "Hg (Jan 15, 5:55 AM)
Low-20 °F (Jan 13, 3:15 AM)53% (Jan 25, 2:35 PM)29.48 "Hg (Jan 17, 1:55 PM)
Average23 °F81%30.06 "Hg
* Reported Jan 11 1:15 PM — Jan 26 1:55 PM, St. Croix Falls, Weather by CustomWeather, © 2014

Note: Actual official high and low records may vary slightly from our data, if they occured in-between our weather recording intervals... More about our weather records

Advertising

St. Croix Falls weather history for previous 24 hours

 ConditionsComfort  
Time TempWeatherWind HumidityBarometerVisibility
1:55 PM
Jan 26
39 °FOvercast.7 mph76%29.74 "Hg10 mi
1:35 PM39 °FOvercast.6 mph77%29.73 "Hg10 mi
1:15 PM38 °FOvercast.7 mph78%29.73 "Hg10 mi
12:55 PM38 °FOvercast.7 mph80%29.73 "Hg10 mi
12:35 PM37 °FOvercast.5 mph82%29.74 "Hg10 mi
12:15 PM36 °FOvercast.5 mph84%29.74 "Hg10 mi
11:55 AM35 °FOvercast.3 mph91%29.73 "Hg10 mi
11:35 AM34 °FMore clouds than sun.No wind95%29.73 "Hg10 mi
11:15 AM33 °FOvercast.No wind97%29.73 "Hg10 mi
10:55 AM32 °FOvercast.No wind96%29.73 "Hg7 mi
10:15 AM31 °FOvercast.7 mph98%29.72 "Hg10 mi
9:55 AM31 °FLight snow. Cloudy.5 mph99%29.71 "Hg7 mi
9:15 AM29 °FIce fog.3 mph100%29.72 "Hg5 mi
8:55 AM29 °FLow clouds.5 mph100%29.72 "Hg7 mi
8:15 AM28 °FLow clouds.8 mph100%29.73 "Hg7 mi
7:55 AM27 °FLow clouds.8 mph100%29.73 "Hg10 mi
7:15 AM26 °FLow clouds.8 mph100%29.74 "Hg10 mi
6:55 AM26 °FLow clouds.9 mph100%29.75 "Hg10 mi
6:35 AM25 °FLow clouds.7 mph100%29.75 "Hg10 mi
6:15 AM24 °FMostly cloudy.12 mph100%29.75 "Hg10 mi
5:55 AM24 °FOvercast.9 mph99%29.77 "Hg10 mi
5:35 AM24 °FLight snow. Overcast.9 mph100%29.78 "Hg10 mi
5:15 AM23 °FLight snow. Overcast.6 mph100%29.79 "Hg2 mi
4:55 AM23 °FLight snow. Mostly cloudy.9 mph95%29.80 "Hg2 mi
4:35 AM23 °FLight snow. Overcast.8 mph89%29.81 "Hg4 mi
4:15 AM23 °FOvercast.8 mph86%29.82 "Hg10 mi
3:55 AM23 °FLight snow. Overcast.10 mph86%29.82 "Hg7 mi
3:35 AM22 °FMostly cloudy.12 mph84%29.84 "Hg10 mi
3:15 AM22 °FOvercast.9 mph84%29.86 "Hg10 mi
2:55 AM22 °FLight snow. Mostly cloudy.9 mph83%29.88 "Hg7 mi
2:35 AM22 °FOvercast.7 mph83%29.92 "Hg10 mi
2:15 AM22 °FOvercast.9 mph83%29.92 "Hg10 mi
1:55 AM22 °FMostly cloudy.8 mph83%29.93 "Hg10 mi
1:35 AM21 °FMostly cloudy.7 mph83%29.93 "Hg10 mi
1:15 AM21 °FMostly cloudy.9 mph84%29.93 "Hg10 mi
12:55 AM21 °FPassing clouds.7 mph83%29.96 "Hg10 mi
12:35 AM21 °FPassing clouds.8 mph81%29.96 "Hg10 mi
12:15 AM20 °FPassing clouds.7 mph81%29.98 "Hg10 mi
11:55 PM
Jan 25
20 °FPassing clouds.6 mph81%30.00 "Hg10 mi
11:15 PM20 °FPassing clouds.9 mph76%30.01 "Hg10 mi
10:55 PM20 °FPassing clouds.6 mph76%30.02 "Hg10 mi
10:35 PM20 °FPassing clouds.5 mph74%30.03 "Hg10 mi
10:15 PM20 °FClear.5 mph76%30.02 "Hg10 mi
9:55 PM19 °FClear.5 mph76%30.03 "Hg10 mi
9:15 PM20 °FClear.3 mph73%30.04 "Hg10 mi
8:55 PM20 °FClear.3 mph76%30.05 "Hg10 mi
8:15 PM20 °FClear.5 mph74%30.07 "Hg10 mi
7:55 PM20 °FClear.5 mph74%30.07 "Hg10 mi
7:35 PM20 °FClear.No wind74%30.09 "Hg10 mi
7:15 PM20 °FClear.5 mph74%30.08 "Hg10 mi
6:55 PM20 °FClear.3 mph72%30.08 "Hg10 mi
6:15 PM20 °FPassing clouds.5 mph71%30.09 "Hg10 mi
5:55 PM21 °FClear.6 mph71%30.08 "Hg10 mi
5:35 PM23 °FPassing clouds.5 mph64%30.08 "Hg10 mi
5:15 PM23 °FPassing clouds.3 mph66%30.07 "Hg10 mi
4:55 PM24 °FScattered clouds.6 mph64%30.06 "Hg10 mi
4:15 PM26 °FSunny.6 mph57%30.06 "Hg10 mi
3:15 PM27 °FSunny.7 mph53%30.06 "Hg10 mi
2:55 PM26 °FSunny.6 mph54%30.07 "Hg10 mi
2:35 PM27 °FSunny.6 mph53%30.06 "Hg10 mi
2:15 PM26 °FSunny.3 mph54%30.07 "Hg10 mi
Weather by CustomWeather, © 2014

See weather overviewHow to use our weather pages